Home > Weather > Helmstedt > Past weeks

Flag for Germany Past Weather in Helmstedt, Lower Saxony, Germany — Yesterday and Last 2 Weeks

Now
70 °F

Partly sunny.


Feels Like: 70 °F
Forecast: 53 / 72 °F
Wind: 6 mph from East

Location: Braunschweig Wolfsburg

Current Time: May 27, 2016 at 6:15:45 PM

Latest Report: May 27, 2016 at 5:50 PM


Visibility: N/A

Pressure: 30.01 "Hg

Humidity: 57%

Dew Point: 54 °F

Location of HelmstedtLocation

Past Weather in Helmstedt — Graph

°F

Helmstedt Temperature Yesterday

Maximum temperature yesterday: 68 °F (at 4:20 PM)
Minimum temperature yesterday: 50 °F (at 6:50 AM)
Average temperature yesterday: 62 °F

High & Low Weather Summary for the Past Weeks

 TemperatureHumidityPressure
High84 °F (May 22, 3:20 PM)100% (May 24, 6:50 AM)30.07 "Hg (May 24, 6:50 AM)
Low41 °F (May 16, 7:20 AM)23% (May 13, 1:20 PM)29.53 "Hg (May 12, 5:50 PM)
Average61 °F63%29.89 "Hg
* Reported May 12 4:20 PM — May 27 4:50 PM, Helmstedt, Weather by CustomWeather, © 2016

Note: Actual official high and low records may vary slightly from our data, if they occured in-between our weather recording intervals... More about our weather records

Advertising

Helmstedt Weather History for the Previous 24 Hours

Scroll right to see more
 ConditionsComfort  
Time TempWeatherWind HumidityBarometerVisibility
4:50 PM
Fri, May 27
70 °FPartly sunny.7 mph53%30.01 "HgN/A
4:20 PM70 °FPartly sunny.7 mph57%30.04 "HgN/A
3:50 PM68 °FPassing clouds.6 mph60%30.04 "HgN/A
3:20 PM68 °FPassing clouds.5 mph60%30.04 "HgN/A
2:50 PM66 °FScattered clouds.6 mph68%30.04 "HgN/A
2:20 PM66 °FPartly sunny.7 mph68%30.04 "HgN/A
1:50 PM66 °FPassing clouds.6 mph68%30.04 "HgN/A
1:20 PM66 °FScattered clouds.6 mph68%30.04 "HgN/A
12:50 PM64 °FPartly sunny.6 mph73%30.04 "HgN/A
12:20 PM64 °FPassing clouds.7 mph73%30.04 "HgN/A
11:50 AM63 °FScattered clouds.7 mph77%30.04 "HgN/A
11:20 AM63 °FPassing clouds.3 mph77%30.04 "HgN/A
10:50 AM64 °FPassing clouds.5 mph78%30.04 "HgN/A
10:20 AM61 °FPassing clouds.7 mph83%30.04 "Hg6 mi
9:50 AM61 °FClear.6 mph83%30.04 "Hg5 mi
9:20 AM59 °FPassing clouds.6 mph88%30.04 "Hg4 mi
8:50 AM59 °FPassing clouds.7 mph88%30.04 "Hg4 mi
8:20 AM57 °FFog.3 mph94%30.04 "Hg3 mi
7:50 AM55 °FFog.3 mph94%30.04 "Hg3 mi
7:20 AM54 °FFog.1 mph100%30.04 "Hg2 mi
6:50 AM50 °FFog.2 mph100%30.04 "Hg2 mi
9:50 PM
Thu, May 26
59 °FSunny.6 mph77%30.04 "Hg10 mi
9:20 PM61 °FSunny.3 mph68%30.01 "Hg10 mi
8:50 PM63 °FSunny.3 mph68%30.01 "Hg10 mi
8:20 PM63 °FSunny.3 mph68%30.01 "Hg10 mi
7:50 PM66 °FSunny.5 mph60%30.01 "Hg10 mi
7:20 PM66 °FSunny.2 mph56%30.01 "Hg10 mi
6:50 PM66 °FPassing clouds.5 mph49%30.01 "HgN/A
6:20 PM66 °FPartly sunny.5 mph52%30.01 "HgN/A
Weather by CustomWeather, © 2016

See weather overviewHow to use our weather pages